N851TB LICC-LIEE

Flight info

Callsign N851TB
Flight time 1h 20m
Altitude 24000
Route LIBRO DCT ENEPA DCT PAL DCT KAPIL DCT TIVUK M732 CAR
Aircraft TBM8/L-SDFGRWY/S

Departure

Time 2026-05-05 06:45
Airport Catania-Fontanarossa Airport (LICC)

Arrival

Time 2026-05-05 08:05
Airport Cagliari Elmas Airport (LIEE)
Time Latitude Longitude Altitude Speed Heading
2026-05-05 06:33 37.46937 15.06981 26 ft 0 kts 38°
2026-05-05 06:42 37.46925 15.06995 26 ft 9 kts 194°
2026-05-05 06:42 37.46880 15.07063 27 ft 16 kts 82°
2026-05-05 06:42 37.46893 15.07201 27 ft 15 kts 82°
2026-05-05 06:42 37.46903 15.07325 27 ft 16 kts 84°
2026-05-05 06:43 37.46918 15.07518 27 ft 26 kts 84°
2026-05-05 06:43 37.46935 15.07732 27 ft 22 kts 85°
2026-05-05 06:43 37.46861 15.07780 29 ft 15 kts 226°
2026-05-05 06:43 37.46794 15.07666 32 ft 14 kts 236°
2026-05-05 06:44 37.46755 15.07560 31 ft 17 kts 263°
2026-05-05 06:44 37.46733 15.07293 31 ft 54 kts 264°
2026-05-05 06:44 37.46677 15.06609 93 ft 94 kts 263°
2026-05-05 06:44 37.46592 15.05709 332 ft 113 kts 263°
2026-05-05 06:45 37.46532 15.04645 631 ft 131 kts 266°
2026-05-05 06:45 37.46448 15.03442 943 ft 144 kts 265°
2026-05-05 06:45 37.46344 15.02224 1449 ft 140 kts 264°
2026-05-05 06:45 37.46227 15.00998 1958 ft 141 kts 263°
2026-05-05 06:46 37.46108 14.99768 2504 ft 142 kts 263°
2026-05-05 06:46 37.45997 14.98516 3017 ft 145 kts 264°
2026-05-05 06:46 37.45893 14.97251 3540 ft 145 kts 264°
2026-05-05 06:46 37.45789 14.95985 4055 ft 146 kts 264°
2026-05-05 06:47 37.45842 14.94711 4555 ft 149 kts 287°
2026-05-05 06:47 37.46257 14.93505 5049 ft 151 kts 296°
2026-05-05 06:47 37.46709 14.92324 5538 ft 152 kts 296°
2026-05-05 06:47 37.47154 14.91105 6022 ft 154 kts 295°
2026-05-05 06:48 37.47589 14.89868 6517 ft 155 kts 295°
2026-05-05 06:48 37.48018 14.88628 7001 ft 154 kts 295°
2026-05-05 06:48 37.48441 14.87390 7492 ft 154 kts 295°
2026-05-05 06:48 37.48857 14.86155 7989 ft 153 kts 295°
2026-05-05 06:49 37.49274 14.84927 8471 ft 152 kts 295°
2026-05-05 06:49 37.49687 14.83707 8967 ft 151 kts 295°
2026-05-05 06:49 37.50089 14.82504 9449 ft 150 kts 296°
2026-05-05 06:49 37.50500 14.81296 9944 ft 150 kts 296°
2026-05-05 06:50 37.50908 14.80088 10380 ft 150 kts 296°
2026-05-05 06:50 37.51320 14.78859 10809 ft 151 kts 295°
2026-05-05 06:50 37.51731 14.77639 11232 ft 152 kts 295°
2026-05-05 06:50 37.52139 14.76427 11656 ft 153 kts 295°
2026-05-05 06:51 37.52554 14.75193 12095 ft 153 kts 295°
2026-05-05 06:51 37.52971 14.73953 12521 ft 154 kts 295°
2026-05-05 06:51 37.53392 14.72705 12935 ft 155 kts 295°
2026-05-05 06:51 37.53814 14.71448 13357 ft 156 kts 294°
2026-05-05 06:52 37.54238 14.70185 13775 ft 157 kts 294°
2026-05-05 06:52 37.54663 14.68912 14156 ft 158 kts 293°
2026-05-05 06:52 37.55064 14.67623 14518 ft 159 kts 291°
2026-05-05 06:52 37.55466 14.66321 14867 ft 160 kts 292°
2026-05-05 06:53 37.55891 14.65027 15227 ft 161 kts 292°
2026-05-05 06:53 37.56329 14.63728 15592 ft 162 kts 292°
2026-05-05 06:53 37.56772 14.62422 15946 ft 163 kts 292°
2026-05-05 06:53 37.57216 14.61107 16292 ft 164 kts 292°
2026-05-05 06:54 37.57661 14.59784 16640 ft 164 kts 292°
2026-05-05 06:54 37.58107 14.58455 16989 ft 165 kts 292°
2026-05-05 06:54 37.58555 14.57119 17344 ft 166 kts 292°
2026-05-05 06:54 37.59004 14.55773 17692 ft 167 kts 292°
2026-05-05 06:55 37.59457 14.54416 18035 ft 169 kts 291°
2026-05-05 06:55 37.59912 14.53048 18376 ft 170 kts 291°
2026-05-05 06:55 37.60370 14.51673 18674 ft 170 kts 291°
2026-05-05 06:55 37.60831 14.50295 18970 ft 171 kts 291°
2026-05-05 06:56 37.61294 14.48910 19281 ft 172 kts 291°
2026-05-05 06:56 37.61758 14.47523 19571 ft 172 kts 291°
2026-05-05 06:56 37.62224 14.46127 19874 ft 173 kts 291°
2026-05-05 06:56 37.62685 14.44723 20159 ft 174 kts 291°
2026-05-05 06:57 37.63139 14.43332 20420 ft 174 kts 291°
2026-05-05 06:57 37.63599 14.41912 20709 ft 175 kts 291°
2026-05-05 06:57 37.64063 14.40487 20990 ft 176 kts 291°
2026-05-05 06:57 37.64531 14.39057 21281 ft 177 kts 291°
2026-05-05 06:58 37.65002 14.37620 21571 ft 178 kts 291°
2026-05-05 06:58 37.65475 14.36178 21853 ft 178 kts 291°
2026-05-05 06:58 37.65953 14.34733 22133 ft 179 kts 291°
2026-05-05 06:58 37.66431 14.33273 22411 ft 180 kts 291°
2026-05-05 06:59 37.66908 14.31809 22675 ft 181 kts 291°
2026-05-05 06:59 37.67390 14.30340 22934 ft 182 kts 291°
2026-05-05 06:59 37.67709 14.29365 23112 ft 182 kts 291°
2026-05-05 06:59 37.68202 14.27862 23398 ft 183 kts 291°
2026-05-05 07:00 37.68687 14.26379 23672 ft 183 kts 291°
2026-05-05 07:00 37.69170 14.24904 23898 ft 184 kts 291°
2026-05-05 07:00 37.69660 14.23406 24081 ft 188 kts 291°
2026-05-05 07:00 37.70175 14.21840 24109 ft 199 kts 291°
2026-05-05 07:01 37.70723 14.20186 24138 ft 210 kts 291°
2026-05-05 07:01 37.71301 14.18436 24148 ft 221 kts 291°
2026-05-05 07:01 37.71902 14.16600 24152 ft 231 kts 291°
2026-05-05 07:01 37.72528 14.14685 24158 ft 239 kts 291°
2026-05-05 07:02 37.73165 14.12732 24287 ft 241 kts 291°
2026-05-05 07:02 37.73804 14.10761 24415 ft 243 kts 291°
2026-05-05 07:02 37.74446 14.08780 24553 ft 244 kts 291°
2026-05-05 07:02 37.75091 14.06791 24700 ft 245 kts 291°
2026-05-05 07:03 37.75738 14.04800 24851 ft 245 kts 291°
2026-05-05 07:03 37.76385 14.02805 25021 ft 245 kts 291°
2026-05-05 07:03 37.77032 14.00811 25190 ft 245 kts 291°
2026-05-05 07:03 37.77679 13.98815 25353 ft 245 kts 291°
2026-05-05 07:04 37.78318 13.96829 25526 ft 244 kts 291°
2026-05-05 07:04 37.78957 13.94840 25685 ft 244 kts 291°
2026-05-05 07:04 37.79588 13.92866 25907 ft 240 kts 291°
2026-05-05 07:04 37.80210 13.90918 26143 ft 237 kts 291°
2026-05-05 07:05 37.80815 13.89020 26389 ft 234 kts 291°
2026-05-05 07:05 37.81422 13.87120 26638 ft 232 kts 291°
2026-05-05 07:05 37.82023 13.85239 26899 ft 229 kts 291°
2026-05-05 07:05 37.82614 13.83384 27150 ft 226 kts 291°
2026-05-05 07:06 37.83196 13.81552 27397 ft 223 kts 291°
2026-05-05 07:06 37.83771 13.79744 27645 ft 220 kts 291°
2026-05-05 07:06 37.84340 13.77958 27908 ft 217 kts 291°
2026-05-05 07:06 37.84903 13.76188 28091 ft 219 kts 291°
2026-05-05 07:07 37.85480 13.74375 28115 ft 226 kts 291°
2026-05-05 07:07 37.86079 13.72507 28127 ft 232 kts 291°
2026-05-05 07:07 37.86697 13.70591 28135 ft 238 kts 291°
2026-05-05 07:07 37.87326 13.68629 28136 ft 243 kts 291°
2026-05-05 07:08 37.87963 13.66626 28126 ft 247 kts 291°
2026-05-05 07:08 37.88608 13.64594 28131 ft 251 kts 291°
2026-05-05 07:08 37.89265 13.62524 28139 ft 255 kts 291°
2026-05-05 07:08 37.89928 13.60430 28138 ft 258 kts 291°
2026-05-05 07:09 37.90598 13.58316 28132 ft 260 kts 291°
2026-05-05 07:09 37.91276 13.56175 28125 ft 262 kts 291°
2026-05-05 07:09 37.91957 13.54024 28126 ft 264 kts 291°
2026-05-05 07:09 37.92635 13.51883 28133 ft 266 kts 291°
2026-05-05 07:10 37.93322 13.49705 28132 ft 267 kts 291°
2026-05-05 07:10 37.94015 13.47512 28129 ft 268 kts 290°
2026-05-05 07:10 37.94708 13.45315 28118 ft 269 kts 290°
2026-05-05 07:10 37.95402 13.43113 28125 ft 269 kts 290°
2026-05-05 07:11 37.96100 13.40894 28132 ft 270 kts 290°
2026-05-05 07:11 37.96797 13.38677 28125 ft 271 kts 290°
2026-05-05 07:11 37.97496 13.36454 28124 ft 272 kts 290°
2026-05-05 07:11 37.98195 13.34229 28122 ft 272 kts 290°
2026-05-05 07:12 37.98894 13.32000 28123 ft 272 kts 290°
2026-05-05 07:12 37.99593 13.29775 28122 ft 272 kts 290°
2026-05-05 07:12 38.00293 13.27541 28117 ft 273 kts 290°
2026-05-05 07:12 38.00982 13.25336 28118 ft 273 kts 290°
2026-05-05 07:13 38.01682 13.23100 28116 ft 273 kts 290°
2026-05-05 07:13 38.02382 13.20863 28113 ft 273 kts 290°
2026-05-05 07:13 38.03080 13.18624 28114 ft 273 kts 290°
2026-05-05 07:13 38.03777 13.16386 28116 ft 273 kts 290°
2026-05-05 07:14 38.04477 13.14146 28128 ft 273 kts 290°
2026-05-05 07:14 38.05176 13.11903 28111 ft 274 kts 290°
2026-05-05 07:14 38.05877 13.09656 28109 ft 274 kts 290°
2026-05-05 07:14 38.06578 13.07407 28106 ft 274 kts 290°
2026-05-05 07:15 38.07280 13.05156 28107 ft 274 kts 290°
2026-05-05 07:15 38.07981 13.02904 28102 ft 274 kts 290°
2026-05-05 07:15 38.08681 13.00651 28100 ft 274 kts 290°
2026-05-05 07:15 38.09381 12.98399 28100 ft 274 kts 290°
2026-05-05 07:16 38.10080 12.96147 28102 ft 274 kts 290°
2026-05-05 07:16 38.10779 12.93895 28101 ft 274 kts 290°
2026-05-05 07:16 38.11477 12.91642 28101 ft 274 kts 290°
2026-05-05 07:16 38.12174 12.89389 28101 ft 274 kts 290°
2026-05-05 07:17 38.12870 12.87136 28101 ft 274 kts 290°
2026-05-05 07:17 38.13567 12.84883 28102 ft 274 kts 290°
2026-05-05 07:17 38.14262 12.82630 28103 ft 274 kts 290°
2026-05-05 07:17 38.14957 12.80377 28105 ft 274 kts 290°
2026-05-05 07:18 38.15652 12.78124 28105 ft 274 kts 290°
2026-05-05 07:18 38.16336 12.75899 28098 ft 274 kts 290°
2026-05-05 07:18 38.17030 12.73642 28108 ft 274 kts 290°
2026-05-05 07:18 38.17725 12.71384 28111 ft 275 kts 290°
2026-05-05 07:19 38.18419 12.69127 28106 ft 275 kts 290°
2026-05-05 07:19 38.19115 12.66865 28106 ft 275 kts 290°
2026-05-05 07:19 38.19809 12.64601 28106 ft 275 kts 290°
2026-05-05 07:19 38.20503 12.62336 28106 ft 275 kts 290°
2026-05-05 07:20 38.21197 12.60071 28118 ft 275 kts 290°
2026-05-05 07:20 38.21891 12.57803 28111 ft 275 kts 290°
2026-05-05 07:20 38.22585 12.55533 28109 ft 275 kts 289°
2026-05-05 07:20 38.23279 12.53262 28110 ft 276 kts 289°
2026-05-05 07:21 38.23973 12.50990 28107 ft 276 kts 289°
2026-05-05 07:21 38.24666 12.48717 28108 ft 276 kts 289°
2026-05-05 07:21 38.25358 12.46443 28104 ft 276 kts 289°
2026-05-05 07:21 38.26051 12.44169 28108 ft 276 kts 289°
2026-05-05 07:22 38.26743 12.41893 28114 ft 276 kts 289°
2026-05-05 07:22 38.27436 12.39616 28117 ft 276 kts 289°
2026-05-05 07:22 38.28129 12.37335 28113 ft 276 kts 289°
2026-05-05 07:22 38.28821 12.35052 28114 ft 277 kts 289°
2026-05-05 07:23 38.29514 12.32768 28113 ft 277 kts 289°
2026-05-05 07:23 38.30207 12.30482 28110 ft 277 kts 289°
2026-05-05 07:23 38.30899 12.28197 28108 ft 277 kts 289°
2026-05-05 07:23 38.31590 12.25912 28107 ft 276 kts 289°
2026-05-05 07:24 38.32279 12.23633 28108 ft 276 kts 289°
2026-05-05 07:24 38.32970 12.21344 28109 ft 276 kts 289°
2026-05-05 07:24 38.33659 12.19060 28109 ft 276 kts 289°
2026-05-05 07:24 38.34348 12.16777 28115 ft 276 kts 289°
2026-05-05 07:25 38.35034 12.14499 28115 ft 276 kts 289°
2026-05-05 07:25 38.35721 12.12215 28115 ft 276 kts 289°
2026-05-05 07:25 38.36351 12.09906 28116 ft 276 kts 286°
2026-05-05 07:25 38.36892 12.07598 28120 ft 276 kts 284°
2026-05-05 07:26 38.37418 12.05249 28123 ft 276 kts 284°
2026-05-05 07:26 38.37944 12.02899 28125 ft 276 kts 284°
2026-05-05 07:26 38.38476 12.00548 28122 ft 276 kts 284°
2026-05-05 07:26 38.39014 11.98197 28118 ft 276 kts 284°
2026-05-05 07:27 38.39557 11.95847 28113 ft 276 kts 284°
2026-05-05 07:27 38.40103 11.93499 28113 ft 276 kts 284°
2026-05-05 07:27 38.40650 11.91151 28113 ft 276 kts 284°
2026-05-05 07:27 38.41198 11.88803 28110 ft 276 kts 284°
2026-05-05 07:28 38.41747 11.86456 28109 ft 276 kts 284°
2026-05-05 07:28 38.42294 11.84114 28110 ft 276 kts 284°
2026-05-05 07:28 38.42843 11.81761 28111 ft 276 kts 284°
2026-05-05 07:28 38.43389 11.79413 28115 ft 276 kts 284°
2026-05-05 07:29 38.43936 11.77064 28114 ft 276 kts 284°
2026-05-05 07:29 38.44483 11.74713 28111 ft 276 kts 284°
2026-05-05 07:29 38.45029 11.72361 28109 ft 277 kts 284°
2026-05-05 07:29 38.45575 11.70008 28107 ft 277 kts 284°
2026-05-05 07:30 38.46120 11.67656 28110 ft 276 kts 284°
2026-05-05 07:30 38.47210 11.62949 28112 ft 277 kts 284°
2026-05-05 07:30 38.47747 11.60626 28110 ft 277 kts 284°
2026-05-05 07:31 38.48290 11.58272 28100 ft 277 kts 284°
2026-05-05 07:31 38.48833 11.55918 28097 ft 276 kts 284°
2026-05-05 07:31 38.49376 11.53564 28097 ft 276 kts 284°
2026-05-05 07:31 38.49925 11.51180 28097 ft 276 kts 284°
2026-05-05 07:32 38.50465 11.48828 28096 ft 276 kts 284°
2026-05-05 07:32 38.50996 11.46513 28097 ft 276 kts 284°
2026-05-05 07:32 38.51537 11.44156 28095 ft 276 kts 284°
2026-05-05 07:32 38.52076 11.41804 28095 ft 276 kts 284°
2026-05-05 07:33 38.52615 11.39453 28096 ft 276 kts 284°
2026-05-05 07:33 38.53152 11.37105 28095 ft 276 kts 284°
2026-05-05 07:33 38.53689 11.34752 28096 ft 276 kts 284°
2026-05-05 07:33 38.54227 11.32398 28097 ft 276 kts 284°
2026-05-05 07:34 38.54766 11.30038 28094 ft 276 kts 284°
2026-05-05 07:34 38.55303 11.27681 28091 ft 276 kts 284°
2026-05-05 07:34 38.55839 11.25323 28091 ft 276 kts 284°
2026-05-05 07:34 38.56375 11.22964 28092 ft 276 kts 284°
2026-05-05 07:35 38.56911 11.20605 28092 ft 276 kts 284°
2026-05-05 07:35 38.57447 11.18246 28091 ft 276 kts 284°
2026-05-05 07:35 38.57982 11.15886 28091 ft 276 kts 284°
2026-05-05 07:35 38.58517 11.13525 28091 ft 276 kts 284°
2026-05-05 07:36 38.59051 11.11164 28091 ft 276 kts 284°
2026-05-05 07:36 38.59584 11.08803 28102 ft 276 kts 282°
2026-05-05 07:36 38.60110 11.06442 28095 ft 276 kts 283°
2026-05-05 07:36 38.60643 11.04085 28091 ft 276 kts 283°
2026-05-05 07:37 38.61176 11.01730 28090 ft 276 kts 283°
2026-05-05 07:37 38.61701 10.99407 28086 ft 275 kts 283°
2026-05-05 07:37 38.62231 10.97054 28087 ft 275 kts 283°
2026-05-05 07:37 38.62760 10.94703 28087 ft 275 kts 283°
2026-05-05 07:38 38.63287 10.92352 28085 ft 275 kts 283°
2026-05-05 07:38 38.63814 10.90001 28086 ft 275 kts 283°
2026-05-05 07:38 38.64340 10.87651 28086 ft 275 kts 283°
2026-05-05 07:38 38.64865 10.85301 28078 ft 275 kts 283°
2026-05-05 07:39 38.65391 10.82951 28078 ft 275 kts 283°
2026-05-05 07:39 38.65915 10.80601 28077 ft 275 kts 282°
2026-05-05 07:39 38.66439 10.78247 28078 ft 275 kts 282°
2026-05-05 07:39 38.66963 10.75899 28076 ft 274 kts 283°
2026-05-05 07:40 38.67486 10.73557 28076 ft 273 kts 283°
2026-05-05 07:40 38.67999 10.71250 28073 ft 273 kts 282°
2026-05-05 07:40 38.68517 10.68915 28074 ft 272 kts 282°
2026-05-05 07:40 38.69032 10.66588 28074 ft 272 kts 282°
2026-05-05 07:41 38.69548 10.64258 28072 ft 272 kts 282°
2026-05-05 07:41 38.70062 10.61930 28071 ft 272 kts 282°
2026-05-05 07:41 38.70576 10.59603 28071 ft 272 kts 282°
2026-05-05 07:41 38.71090 10.57277 28073 ft 271 kts 282°
2026-05-05 07:42 38.71598 10.54953 28067 ft 271 kts 282°
2026-05-05 07:42 38.72110 10.52633 28067 ft 271 kts 282°
2026-05-05 07:42 38.72655 10.50326 28064 ft 272 kts 287°
2026-05-05 07:42 38.73557 10.48177 28064 ft 277 kts 298°
2026-05-05 07:43 38.74697 10.46178 28060 ft 279 kts 302°
2026-05-05 07:43 38.75899 10.44229 28060 ft 279 kts 303°
2026-05-05 07:43 38.77101 10.42287 28061 ft 279 kts 302°
2026-05-05 07:43 38.78292 10.40330 28062 ft 278 kts 302°
2026-05-05 07:44 38.79466 10.38361 28061 ft 278 kts 301°
2026-05-05 07:44 38.80628 10.36381 28060 ft 278 kts 301°
2026-05-05 07:44 38.81784 10.34391 28060 ft 278 kts 301°
2026-05-05 07:44 38.82931 10.32402 28059 ft 277 kts 301°
2026-05-05 07:45 38.84074 10.30409 28058 ft 277 kts 301°
2026-05-05 07:45 38.85219 10.28409 27955 ft 281 kts 301°
2026-05-05 07:45 38.86387 10.26362 27692 ft 289 kts 301°
2026-05-05 07:45 38.87586 10.24262 27437 ft 295 kts 301°
2026-05-05 07:46 38.88796 10.22146 27139 ft 301 kts 301°
2026-05-05 07:46 38.90045 10.19962 26773 ft 308 kts 301°
2026-05-05 07:46 38.91324 10.17729 26418 ft 313 kts 301°
2026-05-05 07:46 38.92616 10.15472 26046 ft 314 kts 301°
2026-05-05 07:47 38.93912 10.13205 25690 ft 316 kts 301°
2026-05-05 07:47 38.95213 10.10927 25333 ft 317 kts 301°
2026-05-05 07:47 38.96517 10.08638 24979 ft 318 kts 301°
2026-05-05 07:47 38.97826 10.06340 24615 ft 319 kts 301°
2026-05-05 07:48 38.99138 10.04030 24245 ft 320 kts 301°
2026-05-05 07:48 39.00456 10.01706 23880 ft 321 kts 301°
2026-05-05 07:48 39.01775 9.99381 23494 ft 322 kts 301°
2026-05-05 07:48 39.03096 9.97057 23059 ft 322 kts 301°
2026-05-05 07:49 39.04414 9.94735 22630 ft 321 kts 301°
2026-05-05 07:49 39.05727 9.92421 22212 ft 319 kts 302°
2026-05-05 07:49 39.07032 9.90118 21795 ft 318 kts 301°
2026-05-05 07:49 39.08330 9.87826 21387 ft 316 kts 301°
2026-05-05 07:50 39.09185 9.86313 21122 ft 315 kts 301°
2026-05-05 07:50 39.10469 9.84043 20723 ft 313 kts 301°
2026-05-05 07:50 39.12152 9.81060 20210 ft 309 kts 301°
2026-05-05 07:50 39.13411 9.78827 19823 ft 307 kts 301°
2026-05-05 07:51 39.14256 9.77327 19565 ft 305 kts 301°
2026-05-05 07:51 39.15895 9.74415 19064 ft 302 kts 301°
2026-05-05 07:51 39.16726 9.72940 18812 ft 300 kts 301°
2026-05-05 07:51 39.17928 9.70805 18457 ft 296 kts 301°
2026-05-05 07:52 39.19123 9.68668 18064 ft 291 kts 300°
2026-05-05 07:52 39.20299 9.66562 17661 ft 288 kts 301°
2026-05-05 07:52 39.21461 9.64480 17269 ft 285 kts 301°
2026-05-05 07:52 39.22613 9.62415 16880 ft 283 kts 301°
2026-05-05 07:53 39.23759 9.60363 16496 ft 281 kts 301°
2026-05-05 07:53 39.24898 9.58326 16118 ft 280 kts 301°
2026-05-05 07:53 39.26036 9.56287 15724 ft 279 kts 301°
2026-05-05 07:53 39.27169 9.54259 15363 ft 278 kts 301°
2026-05-05 07:54 39.28299 9.52236 15012 ft 278 kts 301°
2026-05-05 07:54 39.29428 9.50217 14662 ft 277 kts 301°
2026-05-05 07:54 39.30552 9.48204 14314 ft 276 kts 302°
2026-05-05 07:54 39.31671 9.46201 13966 ft 274 kts 302°
2026-05-05 07:55 39.32786 9.44200 13575 ft 274 kts 301°
2026-05-05 07:55 39.33900 9.42203 13172 ft 273 kts 301°
2026-05-05 07:55 39.35009 9.40215 12780 ft 272 kts 301°
2026-05-05 07:55 39.35952 9.38154 12327 ft 260 kts 285°
2026-05-05 07:56 39.36132 9.35938 11830 ft 248 kts 267°
2026-05-05 07:56 39.36116 9.33685 11299 ft 247 kts 268°
2026-05-05 07:56 39.36126 9.31466 10813 ft 246 kts 269°
2026-05-05 07:56 39.36153 9.29297 10355 ft 244 kts 269°
2026-05-05 07:57 39.36189 9.27108 9905 ft 242 kts 269°
2026-05-05 07:57 39.36221 9.24945 9405 ft 240 kts 269°
2026-05-05 07:57 39.36272 9.22795 8906 ft 239 kts 269°
2026-05-05 07:57 39.36301 9.20660 8411 ft 237 kts 269°
2026-05-05 07:58 39.36338 9.18544 7917 ft 233 kts 270°
2026-05-05 07:58 39.36392 9.16497 7429 ft 223 kts 270°
2026-05-05 07:58 39.36437 9.14523 6942 ft 216 kts 270°
2026-05-05 07:58 39.36470 9.12597 6433 ft 213 kts 269°
2026-05-05 07:59 39.36498 9.10700 5941 ft 210 kts 269°
2026-05-05 07:59 39.36525 9.08822 5492 ft 208 kts 269°
2026-05-05 07:59 39.36557 9.06957 5049 ft 207 kts 270°
2026-05-05 07:59 39.36588 9.05107 4627 ft 205 kts 269°
2026-05-05 08:00 39.36616 9.03264 4195 ft 204 kts 269°
2026-05-05 08:00 39.36650 9.01445 3766 ft 201 kts 270°
2026-05-05 08:00 39.36682 8.99642 3336 ft 201 kts 269°
2026-05-05 08:00 39.36707 8.97855 2903 ft 192 kts 268°
2026-05-05 08:01 39.36358 8.96324 2463 ft 171 kts 232°
2026-05-05 08:01 39.35469 8.95469 2277 ft 154 kts 198°
2026-05-05 08:01 39.34447 8.95315 2154 ft 150 kts 172°
2026-05-05 08:01 39.33485 8.95767 1987 ft 151 kts 146°
2026-05-05 08:02 39.32706 8.96696 1776 ft 149 kts 137°
2026-05-05 08:02 39.31937 8.97556 1577 ft 147 kts 140°
2026-05-05 08:02 39.31179 8.98407 1372 ft 143 kts 138°
2026-05-05 08:02 39.30472 8.99251 1182 ft 132 kts 137°
2026-05-05 08:03 39.29822 9.00017 1009 ft 122 kts 138°
2026-05-05 08:03 39.29236 9.00697 886 ft 100 kts 139°
2026-05-05 08:03 39.28758 9.01261 753 ft 90 kts 138°
2026-05-05 08:03 39.28293 9.01809 631 ft 90 kts 140°
2026-05-05 08:04 39.27821 9.02324 510 ft 87 kts 142°
2026-05-05 08:04 39.27378 9.02845 402 ft 86 kts 137°
2026-05-05 08:04 39.26933 9.03370 292 ft 88 kts 140°
2026-05-05 08:04 39.26479 9.03888 164 ft 86 kts 139°
2026-05-05 08:05 39.26043 9.04390 51 ft 83 kts 138°
2026-05-05 08:05 39.25647 9.04859 12 ft 68 kts 138°
2026-05-05 08:05 39.25407 9.05128 10 ft 27 kts 138°
2026-05-05 08:05 39.25304 9.05250 8 ft 15 kts 123°
2026-05-05 08:06 39.25330 9.05344 9 ft 11 kts 50°
2026-05-05 08:06 39.25370 9.05411 10 ft 8 kts 77°
2026-05-05 08:06 39.25342 9.05478 10 ft 13 kts 140°
2026-05-05 08:06 39.25253 9.05579 10 ft 20 kts 138°
2026-05-05 08:07 39.25160 9.05697 10 ft 15 kts 134°
2026-05-05 08:07 39.25131 9.05791 10 ft 12 kts 66°
2026-05-05 08:07 39.25158 9.05872 10 ft 9 kts 111°
2026-05-05 08:07 39.25117 9.05925 10 ft 9 kts 133°
2026-05-05 08:08 39.25080 9.05939 10 ft 7 kts 229°
2026-05-05 08:08 39.25056 9.05905 10 ft 0 kts 229°